This demonstration page uses our WeatherBlox Daily Observations layout. Learn more.

Left ArrowRight Arrow

39.92423, -83.80882

Hourly Observations for April 26, 2022

Temp ( °F °C ) Dew Point ( °F °C ) Humidity (%) Winds ( mph kmh ) Pressure ( in mb ) Visibility ( mi km ) Precip ( " mm )
12:56 am 00:56 Clear 48 8.9 45 7.2 89 89 NW 12 19 30.16 1021 10 16 0.00 0.00
1:56 am 01:56 Clear 47 8.3 44 6.7 90 90 NW 9 15 30.16 1022 10 16 0.00 0.00
2:56 am 02:56 Clear 45 7.2 45 7.2 100 100 WNW 7 11 30.16 1021 10 16 0.00 0.00
3:56 am 03:56 Clear 43 6.1 43 6.1 100 100 W 7 11 30.17 1022 10 16 0.00 0.00
4:56 am 04:56 Clear 42 5.6 39 3.9 89 89 W 12 19 30.22 1023 10 16 0.00 0.00
5:56 am 05:56 Clear 41 5 39 3.9 93 93 WNW 9 15 30.21 1023 10 16 0.00 0.00
6:56 am 06:56 Sunny 38 3.3 36 2.2 93 93 WNW 10 17 30.23 1024 10 16 0.00 0.00
7:56 am 07:56 Sunny 39 3.9 34 1.1 82 82 WNW 10 17 30.24 1024 10 16 0.00 0.00
8:56 am 08:56 Sunny 41 5 34 1.1 76 76 WNW 9 15 30.24 1024 10 16 0.00 0.00
9:19 am 09:19 Mostly Cloudy 43 6 34 1 71 71 W 12 19 30.26 1025 10 16 0.00 0.00
9:56 am 09:56 Cloudy 41 5 34 1.1 76 76 W 13 20 30.25 1025 10 16 0.00 0.00
10:56 am 10:56 Cloudy 42 5.6 34 1.1 73 73 W 13 20 30.26 1025 10 16 0.00 0.00
11:56 am 11:56 Cloudy 43 6.1 34 1.1 71 71 W 13 20 30.27 1025 10 16 0.00 0.00
12:46 pm 12:46 Cloudy 45 7 36 2 71 71 W 12 19 30.27 1025 10 16 0.00 0.00
12:56 pm 12:56 Cloudy 44 6.7 34 1.1 68 68 WNW 14 22 30.27 1025 10 16 0.00 0.00
1:26 pm 13:26 Cloudy 45 7 34 1 66 66 WNW 13 20 30.26 1025 10 16 0.00 0.00
1:56 pm 13:56 Cloudy 45 7.2 34 1.1 66 66 W 13 20 30.26 1025 10 16 0.00 0.00
2:56 pm 14:56 Cloudy 47 8.3 34 1.1 61 61 WNW 20 31 30.26 1025 10 16 0.00 0.00
3:56 pm 15:56 Mostly Cloudy 50 10 34 1.1 54 54 WNW 21 33 30.24 1024 10 16 0.00 0.00
4:56 pm 16:56 Mostly Cloudy 48 8.9 35 1.7 61 61 WNW 15 24 30.24 1024 10 16 0.00 0.00
5:56 pm 17:56 Partly Cloudy 48 8.9 34 1.1 58 58 WNW 15 24 30.25 1024 10 16 0.00 0.00
6:56 pm 18:56 Mostly Sunny 48 8.9 32 0 54 54 WNW 17 28 30.26 1025 10 16 0.00 0.00
7:56 pm 19:56 Sunny 46 7.8 32 0 58 58 WNW 12 19 30.26 1025 10 16 0.00 0.00
8:56 pm 20:56 Clear 42 5.6 34 1.1 73 73 W 5 7 30.26 1025 10 16 0.00 0.00
9:56 pm 21:56 Clear 41 5 33 0.6 73 73 WSW 5 7 30.27 1025 10 16 0.00 0.00
10:56 pm 22:56 Clear 39 3.9 34 1.1 82 82 SW 6 9 30.27 1025 10 16 0.00 0.00
11:56 pm 23:56 Clear 39 3.9 34 1.1 82 82 SW 8 13 30.27 1025 10 16 0.00 0.00

Powered by AerisWeather